Total_Precipitation_Accumulation
2.05 2.24 2.17 2.08 2.06 2.04 2.41 2.79 2.97 2.74 2.58 2.47 2.23 2.13 2.27 2.40 2.46 2.10 1.92 2.07 1.98 1.82 1.67 1.57 1.54 1.62 1.78 1.93 2.02 2.12 2.30 2.59 2.87 3.06 3.31 3.72 4.17 4.61
2.19 2.23 2.16 2.11 2.20 2.13 2.28 2.57 2.82 2.99 2.77 2.29 2.15 2.07 2.09 1.92 2.00 1.76 1.78 1.98 1.83 1.67 1.60 1.56 1.54 1.53 1.52 1.55 1.59 1.62 1.67 1.76 1.92 2.08 2.22 2.45 2.74 3.15
2.36 2.33 2.37 2.48 2.44 2.34 2.44 2.54 2.71 2.97 2.88 2.38 2.28 2.29 2.15 1.93 1.87 1.77 1.72 1.80 1.81 1.90 1.73 1.61 1.50 1.41 1.38 1.37 1.39 1.45 1.50 1.57 1.63 1.71 1.82 1.92 1.96 2.10
2.50 2.73 2.64 2.69 2.64 2.48 2.59 2.55 2.62 2.92 2.81 2.55 2.55 2.56 2.49 2.25 2.10 1.91 1.70 1.69 1.81 2.02 1.77 1.62 1.53 1.46 1.43 1.40 1.36 1.34 1.35 1.39 1.44 1.47 1.51 1.56 1.62 1.70
2.53 2.61 2.65 2.85 2.73 2.61 2.53 2.50 2.59 2.76 2.88 2.66 2.58 2.76 2.63 2.36 2.22 1.96 1.74 1.83 1.62 1.74 1.71 1.64 1.61 1.54 1.49 1.41 1.37 1.34 1.30 1.29 1.32 1.37 1.45 1.54 1.56 1.53
2.47 2.39 2.49 2.74 2.79 2.76 2.55 2.52 2.67 2.78 2.82 2.73 2.62 2.74 2.75 2.66 2.51 2.28 2.16 1.98 1.78 1.66 1.71 1.63 1.61 1.54 1.46 1.34 1.30 1.30 1.31 1.29 1.26 1.24 1.23 1.25 1.28 1.30
2.23 2.13 2.14 2.40 2.61 2.67 2.40 2.41 2.56 2.58 2.59 2.61 2.59 2.67 2.73 2.87 2.73 2.46 2.23 2.07 1.83 1.66 1.66 1.52 1.49 1.40 1.42 1.40 1.33 1.24 1.17 1.16 1.14 1.12 1.11 1.10 1.08 1.08
2.22 2.13 2.02 2.01 2.02 2.16 2.26 2.37 2.52 2.50 2.50 2.65 2.80 2.87 2.87 2.91 2.91 2.70 2.41 2.15 1.93 1.71 1.79 1.75 1.67 1.60 1.45 1.32 1.35 1.26 1.19 1.15 1.12 1.06 1.03 1.03 1.03 1.03
2.08 2.07 1.81 1.64 1.76 1.70 1.90 2.07 2.19 2.27 2.31 2.49 2.63 2.72 2.86 3.00 3.06 2.80 2.60 2.36 2.08 1.89 1.90 1.73 1.62 1.61 1.50 1.45 1.54 1.37 1.29 1.24 1.18 1.15 1.11 1.04 1.01 1.03
1.82 1.84 1.81 1.70 1.70 1.82 1.83 1.76 1.72 1.81 1.99 2.00 2.09 2.35 2.60 2.81 2.96 2.85 2.76 2.43 2.10 1.87 1.82 1.67 1.53 1.51 1.45 1.48 1.58 1.48 1.36 1.26 1.15 1.10 1.09 1.04 0.98 0.99
1.72 1.73 1.75 1.67 1.83 1.78 1.73 1.74 1.73 1.75 1.83 1.91 1.89 2.03 2.28 2.45 2.59 2.67 2.63 2.46 2.16 1.92 1.87 1.83 1.63 1.57 1.51 1.37 1.36 1.45 1.36 1.26 1.18 1.12 1.07 1.04 1.05 1.05
1.76 1.75 1.74 1.64 1.67 1.59 1.53 1.64 1.64 1.67 1.77 1.79 1.77 1.75 1.83 2.15 2.51 2.37 2.40 2.45 2.19 1.86 1.63 1.73 1.70 1.73 1.60 1.25 1.12 1.14 1.16 1.23 1.25 1.20 1.16 1.14 1.19 1.10
1.88 1.80 1.79 1.73 1.44 1.40 1.39 1.42 1.47 1.52 1.65 1.59 1.50 1.50 1.59 1.75 2.04 2.15 2.15 2.15 2.11 1.81 1.59 1.64 1.59 1.64 1.54 1.24 1.06 1.01 1.00 1.01 1.03 1.11 1.18 1.23 1.23 1.14
1.83 1.83 1.84 1.74 1.43 1.31 1.20 1.19 1.25 1.23 1.25 1.33 1.36 1.37 1.44 1.57 1.74 1.92 2.01 2.08 1.99 1.83 1.76 1.81 1.69 1.61 1.55 1.32 1.11 0.98 1.01 1.03 1.04 1.02 1.08 1.34 1.34 1.29
1.67 1.82 1.70 1.56 1.36 1.16 1.12 1.10 1.09 1.05 1.14 1.27 1.31 1.32 1.35 1.44 1.69 1.99 2.16 2.27 2.20 1.91 1.78 1.79 1.79 1.75 1.73 1.51 1.26 1.09 1.05 1.04 1.05 1.10 1.13 1.25 1.32 1.31
1.51 1.57 1.56 1.52 1.43 1.27 1.17 1.09 1.02 1.08 1.18 1.23 1.32 1.45 1.58 1.67 1.75 1.87 2.04 2.10 2.13 1.92 1.73 1.73 1.73 1.81 1.72 1.49 1.40 1.25 1.10 1.04 1.04 1.14 1.24 1.30 1.39 1.42
1.42 1.42 1.45 1.54 1.58 1.55 1.50 1.40 1.34 1.36 1.33 1.30 1.43 1.55 1.55 1.55 1.57 1.72 1.91 1.96 1.85 1.68 1.55 1.53 1.67 1.73 1.69 1.61 1.47 1.23 1.11 1.04 1.04 1.17 1.36 1.43 1.41 1.39
1.34 1.40 1.54 1.62 1.68 1.70 1.69 1.60 1.48 1.35 1.29 1.33 1.40 1.49 1.53 1.55 1.58 1.72 1.86 1.88 1.72 1.58 1.56 1.47 1.55 1.76 1.76 1.55 1.34 1.25 1.17 1.09 1.08 1.24 1.35 1.41 1.41 1.31
1.12 1.27 1.45 1.51 1.56 1.57 1.58 1.52 1.47 1.43 1.42 1.45 1.52 1.57 1.62 1.63 1.64 1.67 1.78 1.82 1.70 1.57 1.53 1.54 1.52 1.61 1.62 1.32 1.04 1.02 1.18 1.23 1.30 1.38 1.43 1.40 1.35 1.25
0.94 1.07 1.22 1.35 1.46 1.57 1.63 1.61 1.58 1.56 1.52 1.49 1.56 1.60 1.67 1.72 1.70 1.65 1.71 1.79 1.76 1.69 1.63 1.56 1.51 1.45 1.44 1.38 1.21 1.08 1.11 1.28 1.42 1.46 1.43 1.48 1.45 1.41
0.97 1.00 1.08 1.26 1.46 1.61 1.70 1.76 1.77 1.71 1.59 1.57 1.59 1.63 1.64 1.73 1.73 1.67 1.71 1.86 1.87 1.78 1.59 1.38 1.31 1.49 1.61 1.78 1.62 1.21 1.10 1.17 1.29 1.42 1.50 1.59 1.57 1.53
1.05 1.06 1.12 1.25 1.42 1.60 1.68 1.70 1.73 1.68 1.63 1.61 1.58 1.63 1.68 1.71 1.68 1.65 1.67 1.77 1.75 1.68 1.55 1.47 1.58 1.78 1.87 1.82 1.56 1.33 1.26 1.24 1.31 1.39 1.41 1.43 1.44 1.38
1.19 1.13 1.12 1.19 1.34 1.48 1.56 1.60 1.63 1.60 1.54 1.55 1.55 1.59 1.67 1.71 1.76 1.75 1.71 1.75 1.78 1.80 1.89 1.85 1.82 1.83 1.81 1.77 1.67 1.52 1.39 1.34 1.40 1.46 1.33 1.26 1.18 1.12